This is the latest recevied weather packets stored in our database for station/object KH6HHG. If no packets are shown the sender has not sent any weather packets the latest 10 day(s).
| Time | Temp. | Humidity | Pressure | Rain* | Wind** | Luminosity | Snow |
|---|---|---|---|---|---|---|---|
| 1777917400 | 20° C | 81% | 1015.2 hPa | 0 mm | - | - | - |
| 1777917100 | 20° C | 83% | 1015.3 hPa | 0 mm | - | - | - |
| 1777916799 | 19.44° C | 81% | 1015.3 hPa | 0 mm | - | - | - |
| 1777916499 | 19.44° C | 83% | 1015.3 hPa | 0 mm | - | - | - |
| 1777916199 | 19.44° C | 84% | 1015.2 hPa | 0 mm | - | - | - |
| 1777915900 | 19.44° C | 86% | 1015.2 hPa | 0 mm | - | - | - |
| 1777915600 | 19.44° C | 88% | 1015.1 hPa | 0 mm | - | - | - |
| 1777915299 | 18.89° C | 89% | 1015.1 hPa | 0 mm | - | - | - |
| 1777914999 | 18.89° C | 89% | 1015 hPa | 0 mm | - | - | - |
| 1777914699 | 18.33° C | 89% | 1015 hPa | 0 mm | - | - | - |
| 1777914399 | 17.78° C | 91% | 1014.8 hPa | 0 mm | - | - | - |
| 1777914100 | 17.78° C | 92% | 1014.6 hPa | 0 mm | - | - | - |
| 1777913799 | 16.67° C | 92% | 1014.5 hPa | 0 mm | - | - | - |
| 1777913499 | 16.67° C | 91% | 1014.4 hPa | 0 mm | - | - | - |
| 1777913199 | 16.67° C | 91% | 1014.4 hPa | 0 mm | - | - | - |
| 1777912899 | 16.67° C | 91% | 1014.3 hPa | 0 mm | - | - | - |
| 1777912599 | 16.67° C | 92% | 1014.2 hPa | 0 mm | - | - | - |
| 1777912299 | 16.11° C | 91% | 1014.1 hPa | 0 mm | - | - | - |
| 1777911999 | 16.11° C | 91% | 1014.1 hPa | 0 mm | - | - | - |
| 1777911699 | 16.11° C | 91% | 1014.1 hPa | 0 mm | - | - | - |
| 1777911399 | 16.11° C | 91% | 1014 hPa | 0 mm | - | - | - |
| 1777911099 | 16.11° C | 90% | 1013.9 hPa | 0 mm | - | - | - |
| 1777910799 | 16.67° C | 90% | 1013.7 hPa | 0 mm | - | - | - |
| 1777910499 | 16.67° C | 90% | 1013.7 hPa | 0 mm | - | - | - |
| 1777910199 | 16.67° C | 90% | 1013.8 hPa | 0 mm | - | - | - |
* Rain latest hour (hover to see other rain measurements)
** Current wind speed in m/s (hover to see current wind gust speed)